Total_Precipitation_Accumulation
0.10 0.18 0.21 0.23 0.22 0.20 0.15 0.13 0.20 0.29 0.45 0.60 0.72 0.97 0.86 0.84 0.92 1.00 0.91 0.88 0.84 0.86 0.92 1.07 1.09 1.05 1.09 1.16 1.19 1.32 1.33 1.30 1.37 1.49 1.52 1.57 1.60 1.65 1.72 1.74 1.72 1.88 1.90 2.00
0.11 0.14 0.15 0.18 0.19 0.17 0.12 0.11 0.11 0.23 0.45 0.65 0.75 0.87 0.86 0.74 0.77 0.99 0.98 0.90 0.92 1.01 1.11 1.11 1.00 0.96 0.98 0.95 1.04 1.23 1.34 1.45 1.54 1.55 1.47 1.55 1.59 1.63 1.66 1.71 1.80 1.88 1.91 2.01
0.21 0.17 0.19 0.27 0.23 0.19 0.16 0.15 0.16 0.29 0.46 0.64 0.80 0.75 0.82 0.80 0.75 0.74 0.78 0.84 0.95 1.05 1.08 1.08 1.11 1.06 0.96 0.87 0.99 1.31 1.41 1.42 1.62 1.74 1.64 1.70 1.73 1.74 1.71 1.73 1.87 1.93 2.05 2.11
0.29 0.32 0.38 0.31 0.27 0.25 0.28 0.29 0.26 0.30 0.43 0.65 0.86 0.81 0.79 0.80 0.78 0.70 0.59 0.68 0.83 0.90 0.93 0.97 1.01 1.03 1.00 0.99 1.04 1.30 1.51 1.59 1.86 2.02 1.89 1.88 1.89 1.91 1.94 2.02 2.06 2.13 2.15 2.08
0.44 0.46 0.48 0.42 0.38 0.41 0.49 0.61 0.51 0.52 0.65 0.72 0.71 0.75 0.83 0.77 0.71 0.65 0.64 0.69 0.75 0.87 0.94 1.06 1.21 1.21 1.18 1.26 1.37 1.54 1.71 1.85 2.10 2.33 2.43 2.37 2.21 2.26 2.33 2.31 2.28 2.35 2.37 2.32
0.60 0.66 0.75 0.70 0.56 0.52 0.68 1.11 0.89 0.73 0.76 0.77 0.78 1.00 1.00 0.73 0.64 0.61 0.64 0.74 0.89 1.07 1.10 1.16 1.35 1.36 1.39 1.51 1.75 1.92 1.91 1.93 2.13 2.38 2.46 2.41 2.38 2.55 2.65 2.55 2.44 2.49 2.41 2.28
0.68 0.78 0.79 0.72 0.65 0.70 1.21 1.61 1.18 0.99 0.99 1.03 1.04 0.99 0.85 0.77 0.79 0.71 0.69 0.79 0.86 0.89 1.04 1.17 1.30 1.43 1.62 1.70 1.84 1.94 1.99 1.99 2.10 2.32 2.58 2.51 2.52 2.60 2.69 2.68 2.68 2.70 2.60 2.47
0.82 1.05 1.19 0.78 0.70 1.09 1.47 1.34 1.40 1.39 1.33 1.25 1.09 0.91 0.79 0.78 0.84 0.77 0.77 0.84 0.89 0.85 0.95 1.14 1.36 1.59 1.71 1.74 1.82 1.97 2.00 1.99 2.04 2.29 2.41 2.44 2.58 2.63 2.73 2.84 2.82 2.78 2.75 2.56
1.11 1.33 1.22 0.98 1.06 1.12 1.21 1.35 1.40 1.34 1.34 1.28 1.21 1.08 0.97 0.94 0.91 0.88 0.95 0.95 1.03 1.05 1.06 1.18 1.36 1.59 1.82 1.86 1.86 1.80 1.77 1.78 1.90 2.08 2.16 2.28 2.39 2.34 2.40 2.54 2.52 2.53 2.54 2.46
1.54 1.52 1.34 1.19 1.15 1.14 1.15 1.23 1.18 1.11 1.08 1.06 1.06 1.03 1.00 1.02 1.08 1.09 1.15 1.13 1.16 1.26 1.26 1.28 1.37 1.56 1.74 1.77 1.78 1.77 1.70 1.67 1.79 2.04 2.15 2.21 2.28 2.25 2.30 2.34 2.40 2.45 2.47 2.41
1.97 1.93 1.73 1.57 1.38 1.33 1.21 1.22 1.19 1.08 1.05 1.00 0.92 0.93 0.94 0.92 1.01 1.08 1.14 1.17 1.18 1.26 1.34 1.33 1.37 1.56 1.70 1.74 1.79 1.85 1.83 1.81 1.93 2.01 2.08 2.25 2.32 2.33 2.33 2.32 2.29 2.29 2.28 2.21
2.22 2.05 1.95 1.89 1.50 1.43 1.45 1.32 1.20 1.19 1.16 1.06 0.94 0.91 0.93 0.93 0.99 1.07 1.14 1.27 1.32 1.37 1.38 1.36 1.37 1.49 1.62 1.80 1.96 2.00 1.94 1.93 1.93 1.91 1.96 1.98 2.00 1.95 1.91 1.84 1.82 1.79 1.78 1.69
1.64 1.72 1.83 1.97 1.77 1.51 1.41 1.32 1.25 1.23 1.19 1.10 1.01 0.97 0.89 0.86 0.95 1.06 1.18 1.32 1.50 1.56 1.45 1.39 1.44 1.52 1.60 1.73 1.96 2.08 2.00 1.86 1.76 1.70 1.73 1.73 1.77 1.83 1.87 1.76 1.66 1.56 1.49 1.37
1.61 1.83 1.97 1.96 2.03 1.90 1.59 1.41 1.28 1.22 1.18 1.09 1.03 1.00 0.95 0.94 0.95 1.07 1.25 1.33 1.35 1.41 1.41 1.39 1.41 1.48 1.56 1.72 1.97 2.10 2.00 1.88 1.69 1.59 1.60 1.62 1.73 1.77 1.77 1.76 1.71 1.50 1.34 1.24
1.77 1.86 1.94 1.80 1.80 1.84 1.83 1.75 1.57 1.42 1.27 1.19 1.13 1.12 1.08 1.04 1.04 1.12 1.21 1.35 1.45 1.46 1.38 1.35 1.39 1.42 1.47 1.62 1.78 1.94 1.99 1.88 1.73 1.67 1.68 1.62 1.58 1.63 1.62 1.62 1.67 1.57 1.35 1.26
1.70 1.63 1.70 1.78 1.80 1.69 1.66 1.72 1.67 1.51 1.28 1.20 1.22 1.21 1.16 1.17 1.21 1.24 1.30 1.43 1.67 1.80 1.67 1.50 1.42 1.39 1.42 1.55 1.64 1.63 1.68 1.67 1.63 1.64 1.63 1.58 1.57 1.60 1.66 1.71 1.75 1.65 1.47 1.35
1.53 1.44 1.46 1.59 1.69 1.73 1.66 1.56 1.50 1.44 1.32 1.25 1.25 1.22 1.19 1.23 1.33 1.48 1.56 1.60 1.64 1.63 1.62 1.62 1.52 1.44 1.49 1.59 1.67 1.59 1.48 1.43 1.38 1.35 1.38 1.40 1.43 1.54 1.66 1.73 1.77 1.64 1.41 1.25
1.24 1.23 1.30 1.38 1.47 1.63 1.65 1.49 1.38 1.34 1.32 1.31 1.30 1.27 1.25 1.31 1.54 1.80 1.84 1.76 1.73 1.59 1.44 1.44 1.46 1.47 1.56 1.62 1.69 1.69 1.54 1.37 1.21 1.16 1.19 1.26 1.43 1.56 1.59 1.58 1.52 1.46 1.34 1.23
1.00 1.04 1.12 1.19 1.24 1.32 1.42 1.47 1.46 1.37 1.28 1.29 1.40 1.45 1.44 1.44 1.62 1.87 1.95 1.94 1.91 1.74 1.45 1.29 1.34 1.35 1.44 1.52 1.61 1.58 1.37 1.16 0.99 0.96 1.01 1.16 1.35 1.58 1.59 1.47 1.36 1.31 1.31 1.29
0.98 0.97 1.03 1.05 1.07 1.12 1.21 1.29 1.32 1.34 1.32 1.32 1.39 1.44 1.50 1.54 1.70 1.91 2.03 2.06 1.92 1.71 1.47 1.26 1.16 1.13 1.18 1.34 1.45 1.42 1.26 1.09 0.95 0.91 0.96 1.11 1.30 1.53 1.51 1.38 1.32 1.32 1.32 1.34
1.00 0.97 0.96 1.01 1.06 1.05 1.10 1.15 1.20 1.27 1.34 1.33 1.43 1.54 1.58 1.58 1.69 1.93 2.14 2.10 1.78 1.49 1.32 1.25 1.09 0.99 1.02 1.20 1.27 1.21 1.17 1.09 1.00 1.00 1.07 1.22 1.43 1.56 1.48 1.36 1.32 1.29 1.29 1.37
1.06 1.00 0.97 0.99 1.07 1.08 1.09 1.14 1.15 1.20 1.27 1.25 1.35 1.49 1.54 1.64 1.65 1.64 1.71 1.85 1.69 1.46 1.18 1.03 0.99 1.02 1.08 1.18 1.15 1.10 1.12 1.11 1.07 1.10 1.18 1.31 1.42 1.48 1.44 1.36 1.36 1.32 1.29 1.32
1.08 1.03 0.98 0.97 1.01 1.07 1.02 1.05 1.10 1.20 1.31 1.28 1.28 1.35 1.48 1.61 1.63 1.66 1.57 1.43 1.40 1.36 1.13 0.99 0.98 1.05 1.10 1.10 1.13 1.12 1.16 1.14 1.07 1.07 1.17 1.28 1.37 1.41 1.43 1.44 1.41 1.36 1.35 1.32
1.00 0.98 0.98 0.98 0.99 1.05 1.10 1.06 1.07 1.14 1.23 1.18 1.14 1.14 1.27 1.41 1.39 1.34 1.41 1.46 1.39 1.34 1.18 1.10 1.03 1.01 1.03 0.99 1.06 1.15 1.22 1.15 1.07 1.06 1.11 1.18 1.25 1.33 1.46 1.55 1.51 1.42 1.34 1.26
1.02 1.01 0.98 1.04 1.14 1.24 1.23 1.18 1.20 1.22 1.24 1.16 1.09 1.03 1.06 1.26 1.36 1.27 1.28 1.31 1.30 1.25 1.15 1.13 1.09 1.12 1.09 1.09 1.08 1.11 1.09 0.99 0.97 0.99 1.07 1.17 1.22 1.24 1.32 1.34 1.28 1.28 1.29 1.25
1.12 1.09 1.07 1.09 1.15 1.21 1.22 1.32 1.42 1.40 1.41 1.39 1.22 1.02 0.98 1.07 1.14 1.21 1.26 1.25 1.26 1.29 1.15 1.07 1.04 1.06 1.09 1.16 1.16 1.06 0.95 0.90 0.89 0.89 0.97 1.08 1.11 1.16 1.20 1.18 1.13 1.17 1.17 1.15
1.10 1.08 1.10 1.13 1.14 1.13 1.12 1.22 1.35 1.46 1.60 1.59 1.36 1.05 0.97 1.03 1.12 1.20 1.24 1.26 1.32 1.33 1.27 1.14 1.04 1.02 1.03 1.07 1.08 1.01 0.95 0.88 0.86 0.88 0.91 0.92 0.95 1.05 1.13 1.16 1.11 1.10 1.11 1.09